Time,TemperatureF,DewpointF,PressureIn,WindDirection,WindDirectionDegrees,WindSpeedMPH,WindSpeedGustMPH,Humidity,HourlyPrecipIn,Conditions,Clouds,dailyrainin,SoftwareType,DateUTC
2013-01-06 00:00:00,41.8,41.3,30.51,South,172,0.0,0.0,98,0.00,,,0.00,Wunderground v.1.15,2013-01-06 00:00:00,
2013-01-06 00:10:00,41.9,41.1,30.51,SSW,194,0.0,0.0,97,0.00,,,0.00,Wunderground v.1.15,2013-01-06 00:10:00,
2013-01-06 00:15:00,42.1,41.6,30.52,SSW,206,0.0,0.0,98,0.00,,,0.00,Wunderground v.1.15,2013-01-06 00:15:00,
2013-01-06 00:25:00,42.3,41.8,30.51,South,184,0.0,0.0,98,0.00,,,0.00,Wunderground v.1.15,2013-01-06 00:25:00,
2013-01-06 00:30:00,42.3,41.8,30.52,SSW,193,0.0,0.0,98,0.00,,,0.00,Wunderground v.1.15,2013-01-06 00:30:00,
2013-01-06 00:40:00,42.2,41.7,30.51,SSW,210,0.0,0.0,98,0.00,,,0.00,Wunderground v.1.15,2013-01-06 00:40:00,
2013-01-06 00:45:00,42.1,41.3,30.50,South,176,0.0,0.0,97,0.00,,,0.00,Wunderground v.1.15,2013-01-06 00:45:00,
2013-01-06 00:55:00,42.1,41.3,30.51,South,172,0.0,0.0,97,0.00,,,0.00,Wunderground v.1.15,2013-01-06 00:55:00,
2013-01-06 01:00:00,42.0,41.2,30.51,South,172,0.0,0.0,97,0.00,,,0.00,Wunderground v.1.15,2013-01-06 01:00:00,
2013-01-06 01:10:00,41.9,41.1,30.50,SSW,192,0.0,0.0,97,0.00,,,0.00,Wunderground v.1.15,2013-01-06 01:10:00,
2013-01-06 01:15:00,41.8,41.0,30.50,South,189,0.0,0.0,97,0.00,,,0.00,Wunderground v.1.15,2013-01-06 01:15:00,
2013-01-06 01:25:00,41.9,41.1,30.50,SSW,205,0.0,0.0,97,0.00,,,0.00,Wunderground v.1.15,2013-01-06 01:25:00,
2013-01-06 01:30:00,42.1,41.6,30.49,SSE,163,0.0,0.0,98,0.00,,,0.00,Wunderground v.1.15,2013-01-06 01:30:00,
2013-01-06 01:40:00,42.6,42.1,30.49,SSE,160,0.0,0.0,98,0.00,,,0.00,Wunderground v.1.15,2013-01-06 01:40:00,
2013-01-06 01:45:00,42.9,42.4,30.49,SSW,213,0.0,0.0,98,0.00,,,0.00,Wunderground v.1.15,2013-01-06 01:45:00,
2013-01-06 01:50:00,43.1,42.6,30.49,SSE,161,0.0,0.0,98,0.00,,,0.00,Wunderground v.1.15,2013-01-06 01:50:00,
2013-01-06 02:00:00,43.4,42.9,30.50,SSW,207,0.0,0.0,98,0.00,,,0.00,Wunderground v.1.15,2013-01-06 02:00:00,
2013-01-06 02:10:00,43.5,43.0,30.50,SSW,200,0.0,0.0,98,0.00,,,0.00,Wunderground v.1.15,2013-01-06 02:10:00,
2013-01-06 02:15:00,43.5,43.0,30.51,South,184,0.0,0.0,98,0.00,,,0.00,Wunderground v.1.15,2013-01-06 02:15:00,
2013-01-06 02:20:00,43.6,43.1,30.51,SSW,208,0.0,0.0,98,0.00,,,0.00,Wunderground v.1.15,2013-01-06 02:20:00,
2013-01-06 02:25:00,43.6,43.1,30.50,SW,217,0.0,0.0,98,0.00,,,0.00,Wunderground v.1.15,2013-01-06 02:25:00,
2013-01-06 02:30:00,43.7,43.2,30.51,SSW,212,0.0,0.0,98,0.00,,,0.00,Wunderground v.1.15,2013-01-06 02:30:00,
2013-01-06 02:40:00,43.7,43.2,30.51,SSW,209,0.0,0.0,98,0.00,,,0.00,Wunderground v.1.15,2013-01-06 02:40:00,
2013-01-06 02:45:00,43.7,43.2,30.51,SW,222,0.0,0.0,98,0.00,,,0.00,Wunderground v.1.15,2013-01-06 02:45:00,
2013-01-06 02:55:00,43.6,43.1,30.51,SSW,209,0.0,0.0,98,0.00,,,0.00,Wunderground v.1.15,2013-01-06 02:55:00,
2013-01-06 03:00:00,43.5,43.0,30.51,South,179,0.0,0.0,98,0.00,,,0.00,Wunderground v.1.15,2013-01-06 03:00:00,
2013-01-06 03:10:00,43.4,42.9,30.51,SW,219,0.0,0.0,98,0.00,,,0.00,Wunderground v.1.15,2013-01-06 03:10:00,
2013-01-06 03:15:00,43.4,42.9,30.51,SSW,206,0.0,0.0,98,0.00,,,0.00,Wunderground v.1.15,2013-01-06 03:15:00,
2013-01-06 03:25:00,43.2,42.7,30.51,SW,230,0.0,0.0,98,0.00,,,0.00,Wunderground v.1.15,2013-01-06 03:25:00,
2013-01-06 03:30:00,43.1,42.6,30.52,SW,220,0.0,0.0,98,0.00,,,0.00,Wunderground v.1.15,2013-01-06 03:30:00,
2013-01-06 03:40:00,43.0,42.5,30.52,SW,232,0.0,0.0,98,0.00,,,0.00,Wunderground v.1.15,2013-01-06 03:40:00,
2013-01-06 03:50:00,42.9,42.4,30.51,SW,223,0.0,0.0,98,0.00,,,0.00,Wunderground v.1.15,2013-01-06 03:50:00,
2013-01-06 04:00:00,43.0,42.5,30.51,SW,234,0.0,0.0,98,0.00,,,0.00,Wunderground v.1.15,2013-01-06 04:00:00,
2013-01-06 04:10:00,43.2,42.7,30.51,SW,223,0.0,0.0,98,0.00,,,0.00,Wunderground v.1.15,2013-01-06 04:10:00,
2013-01-06 04:20:00,43.3,42.8,30.51,SSW,203,0.0,0.0,98,0.00,,,0.00,Wunderground v.1.15,2013-01-06 04:20:00,
2013-01-06 04:25:00,43.4,42.9,30.51,WSW,242,0.0,0.0,98,0.00,,,0.00,Wunderground v.1.15,2013-01-06 04:25:00,
2013-01-06 04:30:00,43.5,43.0,30.51,SW,227,0.0,0.0,98,0.00,,,0.00,Wunderground v.1.15,2013-01-06 04:30:00,
2013-01-06 04:40:00,43.7,43.2,30.51,WSW,241,0.0,0.0,98,0.00,,,0.00,Wunderground v.1.15,2013-01-06 04:40:00,
2013-01-06 04:45:00,43.7,43.2,30.50,SW,222,0.0,0.0,98,0.00,,,0.00,Wunderground v.1.15,2013-01-06 04:45:00,
2013-01-06 04:55:00,43.9,43.4,30.50,SW,215,0.0,0.0,98,0.00,,,0.00,Wunderground v.1.15,2013-01-06 04:55:00,
2013-01-06 05:00:00,43.9,43.4,30.50,SW,221,0.0,0.0,98,0.00,,,0.00,Wunderground v.1.15,2013-01-06 05:00:00,
2013-01-06 05:05:00,43.9,43.4,30.50,WSW,239,0.0,0.0,98,0.00,,,0.00,Wunderground v.1.15,2013-01-06 05:05:00,
2013-01-06 05:10:00,44.0,43.5,30.50,SSW,209,0.0,0.0,98,0.00,,,0.00,Wunderground v.1.15,2013-01-06 05:10:00,
2013-01-06 05:15:00,44.0,43.5,30.50,South,176,0.0,0.0,98,0.00,,,0.00,Wunderground v.1.15,2013-01-06 05:15:00,
2013-01-06 05:25:00,44.1,43.6,30.50,South,171,0.0,0.0,98,0.00,,,0.00,Wunderground v.1.15,2013-01-06 05:25:00,
2013-01-06 05:30:00,44.1,43.6,30.50,South,171,0.0,0.0,98,0.00,,,0.00,Wunderground v.1.15,2013-01-06 05:30:00,
2013-01-06 05:35:00,44.1,43.6,30.50,South,171,0.0,0.0,98,0.00,,,0.00,Wunderground v.1.15,2013-01-06 05:35:00,
2013-01-06 05:45:00,44.1,43.6,30.49,South,169,0.0,0.0,98,0.00,,,0.00,Wunderground v.1.15,2013-01-06 05:45:00,
2013-01-06 05:55:00,44.2,43.7,30.50,SSW,194,0.0,0.0,98,0.00,,,0.00,Wunderground v.1.15,2013-01-06 05:55:00,
2013-01-06 06:00:00,44.2,43.7,30.50,South,173,0.0,0.0,98,0.00,,,0.00,Wunderground v.1.15,2013-01-06 06:00:00,
2013-01-06 06:10:00,44.2,43.7,30.50,SSW,202,0.0,0.0,98,0.00,,,0.00,Wunderground v.1.15,2013-01-06 06:10:00,
2013-01-06 06:20:00,44.2,43.7,30.50,SSW,200,0.0,0.0,98,0.00,,,0.00,Wunderground v.1.15,2013-01-06 06:20:00,
2013-01-06 06:30:00,44.2,43.7,30.50,South,175,0.0,0.0,98,0.00,,,0.00,Wunderground v.1.15,2013-01-06 06:30:00,
2013-01-06 06:40:00,44.1,43.6,30.50,SSW,194,0.0,0.0,98,0.00,,,0.00,Wunderground v.1.15,2013-01-06 06:40:00,
2013-01-06 06:45:00,44.1,43.6,30.49,SSW,212,0.0,0.0,98,0.00,,,0.00,Wunderground v.1.15,2013-01-06 06:45:00,
2013-01-06 06:55:00,44.1,43.6,30.50,SSW,194,0.0,0.0,98,0.00,,,0.00,Wunderground v.1.15,2013-01-06 06:55:00,
2013-01-06 07:00:00,44.1,43.6,30.50,SSW,212,0.0,0.0,98,0.00,,,0.00,Wunderground v.1.15,2013-01-06 07:00:00,
2013-01-06 07:10:00,44.0,43.5,30.50,South,190,0.0,0.0,98,0.00,,,0.00,Wunderground v.1.15,2013-01-06 07:10:00,
2013-01-06 07:15:00,44.0,43.5,30.50,South,183,0.0,0.0,98,0.00,,,0.00,Wunderground v.1.15,2013-01-06 07:15:00,
2013-01-06 07:20:00,44.0,43.5,30.50,South,184,0.0,0.0,98,0.00,,,0.00,Wunderground v.1.15,2013-01-06 07:20:00,
2013-01-06 07:30:00,44.0,43.5,30.50,SSW,200,0.0,0.0,98,0.00,,,0.00,Wunderground v.1.15,2013-01-06 07:30:00,
2013-01-06 07:40:00,44.0,43.5,30.50,SSW,199,0.0,0.0,98,0.00,,,0.00,Wunderground v.1.15,2013-01-06 07:40:00,
2013-01-06 07:45:00,44.1,43.6,30.50,SSW,200,0.0,0.0,98,0.00,,,0.00,Wunderground v.1.15,2013-01-06 07:45:00,
2013-01-06 07:55:00,44.1,43.6,30.50,SSW,194,0.0,0.0,98,0.00,,,0.00,Wunderground v.1.15,2013-01-06 07:55:00,
2013-01-06 08:00:00,44.1,43.6,30.50,SSW,197,0.0,0.0,98,0.00,,,0.00,Wunderground v.1.15,2013-01-06 08:00:00,
2013-01-06 08:10:00,44.1,43.6,30.50,South,175,0.0,0.0,98,0.00,,,0.00,Wunderground v.1.15,2013-01-06 08:10:00,
2013-01-06 08:20:00,44.1,43.6,30.50,South,175,0.0,0.0,98,0.00,,,0.00,Wunderground v.1.15,2013-01-06 08:20:00,
2013-01-06 08:30:00,44.2,43.7,30.50,South,175,0.0,0.0,98,0.00,,,0.00,Wunderground v.1.15,2013-01-06 08:30:00,
2013-01-06 08:40:00,44.3,43.8,30.50,South,175,0.0,0.0,98,0.00,,,0.00,Wunderground v.1.15,2013-01-06 08:40:00,
2013-01-06 08:45:00,44.4,43.9,30.50,SE,124,0.0,0.0,98,0.00,,,0.00,Wunderground v.1.15,2013-01-06 08:45:00,
2013-01-06 08:55:00,44.5,44.0,30.50,ESE,123,0.0,0.0,98,0.00,,,0.00,Wunderground v.1.15,2013-01-06 08:55:00,
2013-01-06 09:00:00,44.6,44.1,30.50,ESE,123,0.0,0.0,98,0.00,,,0.00,Wunderground v.1.15,2013-01-06 09:00:00,
2013-01-06 09:10:00,44.7,44.2,30.50,ESE,123,0.0,0.0,98,0.00,,,0.00,Wunderground v.1.15,2013-01-06 09:10:00,
2013-01-06 09:20:00,44.9,44.4,30.50,SSE,161,0.0,0.0,98,0.00,,,0.00,Wunderground v.1.15,2013-01-06 09:20:00,
2013-01-06 09:25:00,44.9,44.6,30.50,SSE,161,0.0,0.0,99,0.00,,,0.00,Wunderground v.1.15,2013-01-06 09:25:00,
2013-01-06 09:30:00,44.9,44.6,30.50,SSE,154,0.0,0.0,99,0.00,,,0.00,Wunderground v.1.15,2013-01-06 09:30:00,
2013-01-06 09:40:00,45.0,44.7,30.50,SSE,154,0.0,0.0,99,0.00,,,0.00,Wunderground v.1.15,2013-01-06 09:40:00,
2013-01-06 09:45:00,45.0,44.7,30.50,SSE,155,0.0,0.0,99,0.00,,,0.00,Wunderground v.1.15,2013-01-06 09:45:00,
2013-01-06 09:55:00,45.1,44.6,30.51,SSE,154,0.0,0.0,98,0.00,,,0.00,Wunderground v.1.15,2013-01-06 09:55:00,
2013-01-06 10:00:00,45.1,44.6,30.51,South,178,0.0,0.0,98,0.00,,,0.00,Wunderground v.1.15,2013-01-06 10:00:00,
2013-01-06 10:10:00,45.2,44.7,30.51,South,182,0.0,0.0,98,0.00,,,0.00,Wunderground v.1.15,2013-01-06 10:10:00,
2013-01-06 10:20:00,45.4,45.1,30.50,South,175,0.0,0.0,99,0.00,,,0.00,Wunderground v.1.15,2013-01-06 10:20:00,
2013-01-06 10:25:00,45.5,45.2,30.50,South,176,0.0,0.0,99,0.00,,,0.00,Wunderground v.1.15,2013-01-06 10:25:00,
2013-01-06 10:30:00,45.6,45.3,30.50,South,175,0.0,0.0,99,0.00,,,0.01,Wunderground v.1.15,2013-01-06 10:30:00,
2013-01-06 10:40:00,45.8,45.5,30.50,South,175,0.0,0.0,99,0.00,,,0.01,Wunderground v.1.15,2013-01-06 10:40:00,
2013-01-06 10:45:00,45.9,45.4,30.50,South,175,0.0,0.0,98,0.00,,,0.01,Wunderground v.1.15,2013-01-06 10:45:00,
2013-01-06 10:55:00,46.0,45.7,30.50,South,173,0.0,0.0,99,0.00,,,0.01,Wunderground v.1.15,2013-01-06 10:55:00,
2013-01-06 11:00:00,46.1,45.8,30.50,SE,132,0.0,0.0,99,0.00,,,0.01,Wunderground v.1.15,2013-01-06 11:00:00,
2013-01-06 11:10:00,46.1,45.8,30.50,SE,138,0.0,0.0,99,0.00,,,0.01,Wunderground v.1.15,2013-01-06 11:10:00,
2013-01-06 11:15:00,46.1,45.8,30.50,SE,144,0.0,0.0,99,0.00,,,0.01,Wunderground v.1.15,2013-01-06 11:15:00,
2013-01-06 11:20:00,46.1,45.8,30.50,SE,128,0.0,0.0,99,0.00,,,0.01,Wunderground v.1.15,2013-01-06 11:20:00,
2013-01-06 11:30:00,46.2,45.9,30.50,SE,134,0.0,0.0,99,0.00,,,0.01,Wunderground v.1.15,2013-01-06 11:30:00,
2013-01-06 11:40:00,46.2,45.9,30.49,South,187,0.0,0.0,99,0.00,,,0.01,Wunderground v.1.15,2013-01-06 11:40:00,
2013-01-06 11:50:00,46.3,46.0,30.49,SE,144,0.0,0.0,99,0.00,,,0.01,Wunderground v.1.15,2013-01-06 11:50:00,
2013-01-06 11:55:00,46.3,46.0,30.49,South,181,0.0,0.0,99,0.00,,,0.01,Wunderground v.1.15,2013-01-06 11:55:00,
2013-01-06 12:00:00,46.2,45.9,30.49,SE,146,0.0,0.0,99,0.00,,,0.01,Wunderground v.1.15,2013-01-06 12:00:00,
2013-01-06 12:10:00,46.2,45.9,30.48,SSE,156,0.0,0.0,99,0.00,,,0.01,Wunderground v.1.15,2013-01-06 12:10:00,
2013-01-06 12:15:00,46.2,45.9,30.48,SSE,154,0.0,0.0,99,0.00,,,0.01,Wunderground v.1.15,2013-01-06 12:15:00,
2013-01-06 12:25:00,46.3,46.0,30.48,SSE,158,0.0,0.0,99,0.00,,,0.01,Wunderground v.1.15,2013-01-06 12:25:00,
2013-01-06 12:30:00,46.2,45.9,30.48,SSW,195,0.0,0.0,99,0.00,,,0.01,Wunderground v.1.15,2013-01-06 12:30:00,
2013-01-06 12:40:00,46.1,45.8,30.48,SSE,158,0.0,0.0,99,0.00,,,0.01,Wunderground v.1.15,2013-01-06 12:40:00,
2013-01-06 12:45:00,46.0,45.5,30.47,SSE,157,0.0,0.0,98,0.00,,,0.01,Wunderground v.1.15,2013-01-06 12:45:00,
2013-01-06 12:55:00,46.0,45.5,30.47,SW,221,0.0,0.0,98,0.00,,,0.01,Wunderground v.1.15,2013-01-06 12:55:00,
2013-01-06 13:00:00,45.9,45.4,30.47,SSW,192,0.0,0.0,98,0.00,,,0.01,Wunderground v.1.15,2013-01-06 13:00:00,
2013-01-06 13:10:00,45.7,45.2,30.47,SSE,157,0.0,0.0,98,0.00,,,0.01,Wunderground v.1.15,2013-01-06 13:10:00,
2013-01-06 13:15:00,45.6,45.1,30.47,SE,142,0.0,0.0,98,0.00,,,0.01,Wunderground v.1.15,2013-01-06 13:15:00,
2013-01-06 13:25:00,45.3,44.8,30.47,SSE,148,0.0,0.0,98,0.00,,,0.01,Wunderground v.1.15,2013-01-06 13:25:00,
2013-01-06 13:30:00,45.1,44.6,30.46,South,185,0.0,0.0,98,0.00,,,0.01,Wunderground v.1.15,2013-01-06 13:30:00,
2013-01-06 13:40:00,45.2,44.7,30.46,SSW,196,0.0,0.0,98,0.00,,,0.01,Wunderground v.1.15,2013-01-06 13:40:00,
2013-01-06 13:50:00,45.1,44.6,30.46,SSW,211,0.0,0.0,98,0.00,,,0.01,Wunderground v.1.15,2013-01-06 13:50:00,
2013-01-06 14:00:00,45.1,44.6,30.46,SSW,197,0.0,0.0,98,0.00,,,0.01,Wunderground v.1.15,2013-01-06 14:00:00,
2013-01-06 14:10:00,45.1,44.6,30.46,SSE,163,0.0,0.0,98,0.00,,,0.01,Wunderground v.1.15,2013-01-06 14:10:00,
2013-01-06 14:20:00,45.2,44.7,30.45,SSE,157,0.0,0.0,98,0.00,,,0.01,Wunderground v.1.15,2013-01-06 14:20:00,
2013-01-06 14:25:00,45.1,44.6,30.45,SSE,156,0.0,0.0,98,0.00,,,0.01,Wunderground v.1.15,2013-01-06 14:25:00,
2013-01-06 14:30:00,45.1,44.6,30.45,SSW,200,0.0,0.0,98,0.00,,,0.01,Wunderground v.1.15,2013-01-06 14:30:00,
2013-01-06 14:40:00,45.0,44.5,30.45,South,184,0.0,0.0,98,0.00,,,0.01,Wunderground v.1.15,2013-01-06 14:40:00,
2013-01-06 14:45:00,45.0,44.5,30.45,South,178,0.0,0.0,98,0.00,,,0.01,Wunderground v.1.15,2013-01-06 14:45:00,
2013-01-06 14:55:00,45.1,44.6,30.44,South,179,0.0,0.0,98,0.00,,,0.01,Wunderground v.1.15,2013-01-06 14:55:00,
2013-01-06 15:00:00,45.1,44.6,30.44,South,185,0.0,0.0,98,0.00,,,0.01,Wunderground v.1.15,2013-01-06 15:00:00,
2013-01-06 15:10:00,45.1,44.6,30.44,SSW,199,0.0,0.0,98,0.00,,,0.01,Wunderground v.1.15,2013-01-06 15:10:00,
2013-01-06 15:15:00,45.1,44.6,30.43,SSE,160,0.0,0.0,98,0.00,,,0.01,Wunderground v.1.15,2013-01-06 15:15:00,
2013-01-06 15:25:00,45.1,44.6,30.43,SSW,198,0.0,0.0,98,0.00,,,0.01,Wunderground v.1.15,2013-01-06 15:25:00,
2013-01-06 15:30:00,45.0,44.5,30.43,South,176,0.0,0.0,98,0.00,,,0.01,Wunderground v.1.15,2013-01-06 15:30:00,
2013-01-06 15:40:00,44.9,44.4,30.43,SSE,163,0.0,0.0,98,0.00,,,0.01,Wunderground v.1.15,2013-01-06 15:40:00,
2013-01-06 15:50:00,44.6,43.8,30.43,SE,134,0.0,0.0,97,0.00,,,0.01,Wunderground v.1.15,2013-01-06 15:50:00,
2013-01-06 15:55:00,44.5,43.7,30.43,SSE,157,0.0,0.0,97,0.00,,,0.01,Wunderground v.1.15,2013-01-06 15:55:00,
2013-01-06 16:00:00,44.4,43.6,30.43,South,171,0.0,0.0,97,0.00,,,0.01,Wunderground v.1.15,2013-01-06 16:00:00,
2013-01-06 16:10:00,44.2,43.4,30.43,South,173,0.0,0.0,97,0.00,,,0.01,Wunderground v.1.15,2013-01-06 16:10:00,
2013-01-06 16:15:00,44.2,43.4,30.43,South,178,0.0,0.0,97,0.00,,,0.01,Wunderground v.1.15,2013-01-06 16:15:00,
2013-01-06 16:25:00,44.1,43.3,30.43,SSE,164,0.0,0.0,97,0.00,,,0.01,Wunderground v.1.15,2013-01-06 16:25:00,
2013-01-06 16:30:00,44.1,43.6,30.43,South,177,0.0,0.0,98,0.00,,,0.01,Wunderground v.1.15,2013-01-06 16:30:00,
2013-01-06 16:40:00,44.1,43.6,30.42,SSE,161,0.0,0.0,98,0.00,,,0.01,Wunderground v.1.15,2013-01-06 16:40:00,
2013-01-06 16:45:00,44.1,43.6,30.42,SSE,161,0.0,0.0,98,0.00,,,0.01,Wunderground v.1.15,2013-01-06 16:45:00,
2013-01-06 16:55:00,44.2,43.7,30.42,South,169,0.0,0.0,98,0.00,,,0.01,Wunderground v.1.15,2013-01-06 16:55:00,
2013-01-06 17:00:00,44.2,43.7,30.42,SE,130,0.0,0.0,98,0.00,,,0.01,Wunderground v.1.15,2013-01-06 17:00:00,
2013-01-06 17:10:00,44.2,43.7,30.42,South,169,0.0,0.0,98,0.00,,,0.01,Wunderground v.1.15,2013-01-06 17:10:00,
2013-01-06 17:15:00,44.3,43.8,30.42,SE,138,0.0,0.0,98,0.00,,,0.01,Wunderground v.1.15,2013-01-06 17:15:00,
2013-01-06 17:25:00,44.4,43.9,30.42,SE,141,0.0,0.0,98,0.00,,,0.01,Wunderground v.1.15,2013-01-06 17:25:00,
2013-01-06 17:30:00,44.5,44.0,30.42,SSE,153,0.0,0.0,98,0.00,,,0.01,Wunderground v.1.15,2013-01-06 17:30:00,
2013-01-06 17:40:00,44.6,44.1,30.42,SE,146,0.0,0.0,98,0.00,,,0.01,Wunderground v.1.15,2013-01-06 17:40:00,
2013-01-06 17:50:00,44.7,44.2,30.42,SE,126,0.0,0.0,98,0.00,,,0.01,Wunderground v.1.15,2013-01-06 17:50:00,
2013-01-06 18:00:00,44.7,44.2,30.42,SSE,154,0.0,0.0,98,0.00,,,0.01,Wunderground v.1.15,2013-01-06 18:00:00,
2013-01-06 18:10:00,44.8,44.3,30.42,South,173,0.0,0.0,98,0.00,,,0.01,Wunderground v.1.15,2013-01-06 18:10:00,
2013-01-06 18:15:00,44.8,44.3,30.42,South,173,0.0,0.0,98,0.00,,,0.01,Wunderground v.1.15,2013-01-06 18:15:00,
2013-01-06 18:25:00,44.8,44.3,30.42,SSE,152,0.0,0.0,98,0.00,,,0.01,Wunderground v.1.15,2013-01-06 18:25:00,
2013-01-06 18:30:00,44.9,44.4,30.41,South,175,0.0,0.0,98,0.00,,,0.01,Wunderground v.1.15,2013-01-06 18:30:00,
2013-01-06 18:40:00,44.9,44.4,30.41,South,175,0.0,0.0,98,0.00,,,0.01,Wunderground v.1.15,2013-01-06 18:40:00,
2013-01-06 18:45:00,44.9,44.4,30.41,South,175,0.0,0.0,98,0.00,,,0.01,Wunderground v.1.15,2013-01-06 18:45:00,
2013-01-06 18:55:00,44.9,44.4,30.41,South,189,0.0,0.0,98,0.00,,,0.01,Wunderground v.1.15,2013-01-06 18:55:00,
2013-01-06 19:00:00,45.0,44.5,30.41,South,178,0.0,0.0,98,0.00,,,0.01,Wunderground v.1.15,2013-01-06 19:00:00,
2013-01-06 19:10:00,45.0,44.5,30.40,SE,146,0.0,0.0,98,0.00,,,0.01,Wunderground v.1.15,2013-01-06 19:10:00,
2013-01-06 19:20:00,45.1,44.6,30.41,SSE,153,0.0,0.0,98,0.00,,,0.01,Wunderground v.1.15,2013-01-06 19:20:00,
2013-01-06 19:30:00,45.1,44.6,30.40,SE,136,0.0,0.0,98,0.00,,,0.01,Wunderground v.1.15,2013-01-06 19:30:00,
2013-01-06 19:40:00,45.2,44.7,30.40,SSE,162,0.0,0.0,98,0.00,,,0.01,Wunderground v.1.15,2013-01-06 19:40:00,
2013-01-06 19:45:00,45.2,44.7,30.40,South,182,0.0,0.0,98,0.00,,,0.01,Wunderground v.1.15,2013-01-06 19:45:00,
2013-01-06 19:50:00,45.3,44.8,30.40,South,184,0.0,0.0,98,0.00,,,0.01,Wunderground v.1.15,2013-01-06 19:50:00,
2013-01-06 19:55:00,45.3,44.8,30.41,SSW,203,0.0,0.0,98,0.00,,,0.01,Wunderground v.1.15,2013-01-06 19:55:00,
2013-01-06 20:00:00,45.4,44.9,30.41,South,175,0.0,0.0,98,0.00,,,0.01,Wunderground v.1.15,2013-01-06 20:00:00,
2013-01-06 20:10:00,45.5,45.0,30.40,South,169,0.0,0.0,98,0.00,,,0.01,Wunderground v.1.15,2013-01-06 20:10:00,
2013-01-06 20:15:00,45.5,45.0,30.40,South,182,0.0,0.0,98,0.00,,,0.01,Wunderground v.1.15,2013-01-06 20:15:00,
2013-01-06 20:20:00,45.6,45.1,30.41,SSE,168,0.0,0.0,98,0.00,,,0.01,Wunderground v.1.15,2013-01-06 20:20:00,
2013-01-06 20:25:00,45.6,45.1,30.40,South,180,0.0,0.0,98,0.00,,,0.01,Wunderground v.1.15,2013-01-06 20:25:00,
2013-01-06 20:30:00,45.7,45.2,30.41,SSE,157,0.0,0.0,98,0.00,,,0.01,Wunderground v.1.15,2013-01-06 20:30:00,
2013-01-06 20:40:00,45.8,45.3,30.40,South,188,0.0,0.0,98,0.00,,,0.01,Wunderground v.1.15,2013-01-06 20:40:00,
2013-01-06 20:45:00,45.8,45.3,30.40,SSW,209,0.0,0.0,98,0.00,,,0.01,Wunderground v.1.15,2013-01-06 20:45:00,
2013-01-06 20:55:00,45.8,45.0,30.40,SSE,152,0.0,0.0,97,0.00,,,0.01,Wunderground v.1.15,2013-01-06 20:55:00,
2013-01-06 21:00:00,45.8,45.0,30.40,SE,144,0.0,0.0,97,0.00,,,0.01,Wunderground v.1.15,2013-01-06 21:00:00,
2013-01-06 21:05:00,45.8,45.0,30.40,South,179,0.0,0.0,97,0.00,,,0.01,Wunderground v.1.15,2013-01-06 21:05:00,
2013-01-06 21:15:00,45.9,45.1,30.40,South,186,0.0,0.0,97,0.00,,,0.01,Wunderground v.1.15,2013-01-06 21:15:00,
2013-01-06 21:20:00,45.9,45.1,30.40,South,180,0.0,0.0,97,0.00,,,0.01,Wunderground v.1.15,2013-01-06 21:20:00,
2013-01-06 21:30:00,46.0,44.9,30.40,SSW,196,0.0,0.0,96,0.00,,,0.01,Wunderground v.1.15,2013-01-06 21:30:00,
2013-01-06 21:40:00,46.0,44.9,30.40,SSW,202,0.0,0.0,96,0.00,,,0.01,Wunderground v.1.15,2013-01-06 21:40:00,
2013-01-06 21:45:00,46.1,45.0,30.40,SSE,160,0.0,0.0,96,0.00,,,0.01,Wunderground v.1.15,2013-01-06 21:45:00,
2013-01-06 21:55:00,46.1,45.0,30.40,South,176,0.0,0.0,96,0.00,,,0.01,Wunderground v.1.15,2013-01-06 21:55:00,
2013-01-06 22:00:00,46.1,45.0,30.40,South,191,0.0,0.0,96,0.00,,,0.01,Wunderground v.1.15,2013-01-06 22:00:00,
2013-01-06 22:10:00,46.1,45.0,30.40,South,180,0.0,0.0,96,0.00,,,0.01,Wunderground v.1.15,2013-01-06 22:10:00,
2013-01-06 22:15:00,46.1,45.0,30.40,SSW,192,0.0,0.0,96,0.00,,,0.01,Wunderground v.1.15,2013-01-06 22:15:00,
2013-01-06 22:20:00,46.1,45.0,30.40,South,190,0.0,0.0,96,0.00,,,0.01,Wunderground v.1.15,2013-01-06 22:20:00,
2013-01-06 22:30:00,46.1,45.0,30.40,South,184,0.0,0.0,96,0.00,,,0.01,Wunderground v.1.15,2013-01-06 22:30:00,
2013-01-06 22:40:00,46.1,45.0,30.40,SSW,194,0.0,0.0,96,0.00,,,0.01,Wunderground v.1.15,2013-01-06 22:40:00,
2013-01-06 22:45:00,46.1,45.0,30.40,South,171,0.0,0.0,96,0.00,,,0.01,Wunderground v.1.15,2013-01-06 22:45:00,
2013-01-06 22:55:00,46.0,44.9,30.40,South,171,0.0,0.0,96,0.00,,,0.01,Wunderground v.1.15,2013-01-06 22:55:00,
2013-01-06 23:00:00,46.0,44.9,30.40,South,191,0.0,0.0,96,0.00,,,0.01,Wunderground v.1.15,2013-01-06 23:00:00,
2013-01-06 23:10:00,45.9,44.8,30.39,SSE,153,0.0,0.0,96,0.00,,,0.01,Wunderground v.1.15,2013-01-06 23:10:00,
2013-01-06 23:20:00,45.8,44.7,30.40,South,169,0.0,0.0,96,0.00,,,0.01,Wunderground v.1.15,2013-01-06 23:20:00,
2013-01-06 23:30:00,45.7,44.6,30.39,SSE,152,0.0,0.0,96,0.00,,,0.01,Wunderground v.1.15,2013-01-06 23:30:00,
2013-01-06 23:40:00,45.7,44.6,30.39,SSE,159,0.0,0.0,96,0.00,,,0.01,Wunderground v.1.15,2013-01-06 23:40:00,
2013-01-06 23:50:00,45.6,44.5,30.39,SE,143,0.0,0.0,96,0.00,,,0.01,Wunderground v.1.15,2013-01-06 23:50:00,